• In Moldova, Republic
  • List of Countries
  • For 7 days
  • Water Temperature
  • Satellite Maps
  • Weather Map
  • Weather Widgets
  • user-avatar
    Login

    Hourly Weather Gold Coast

    Today, 23 February, Friday

    Time Temperature Precipitation Wind Pressure Humidity
    00:00 +23°C° 1.6 mm 6 mps 756 mmHg 94%
    01:00 +23°C° 1.6 mm 6 mps 756 mmHg 95%
    02:00 +23°C° 3.2 mm 6 mps 756 mmHg 95%
    03:00 +23°C° 3.2 mm 6 mps 756 mmHg 95%
    04:00 +23°C° 0 mm 6 mps 756 mmHg 96%
    05:00 +23°C° 4.4 mm 6 mps 756 mmHg 96%
    06:00 +23°C° 4.4 mm 6 mps 756 mmHg 96%
    07:00 +23°C° 4.4 mm 6 mps 757 mmHg 96%
    08:00 +23°C° 8.2 mm 6 mps 757 mmHg 96%
    09:00 +23°C° 8.2 mm 7 mps 757 mmHg 96%
    10:00 +23°C° 8.2 mm 7 mps 757 mmHg 96%
    11:00 +23°C° 11.4 mm 7 mps 756 mmHg 96%
    12:00 +23°C° 11.4 mm 7 mps 756 mmHg 96%
    13:00 +23°C° 11.4 mm 7 mps 756 mmHg 96%
    14:00 +23°C° 9.3 mm 7 mps 756 mmHg 96%
    15:00 +23°C° 9.3 mm 7 mps 756 mmHg 96%
    16:00 +24°C° 0 mm 7 mps 756 mmHg 96%
    17:00 +24°C° 3.2 mm 7 mps 756 mmHg 96%
    18:00 +24°C° 3.2 mm 7 mps 756 mmHg 96%
    19:00 +23°C° 3.2 mm 7 mps 756 mmHg 96%
    20:00 +24°C° 3.6 mm 7 mps 756 mmHg 96%
    21:00 +24°C° 3.6 mm 6 mps 756 mmHg 96%
    22:00 +24°C° 3.6 mm 6 mps 756 mmHg 96%
    23:00 +24°C° 4.8 mm 6 mps 756 mmHg 96%

    Tomorrow, 24 February, Saturday

    Time Temperature Precipitation Wind Pressure Humidity
    00:00 +24°C° 4.8 mm 6 mps 756 mmHg 97%
    01:00 +25°C° 4.8 mm 5 mps 756 mmHg 97%
    02:00 +25°C° 4.2 mm 5 mps 756 mmHg 97%
    03:00 +25°C° 4.2 mm 4 mps 755 mmHg 97%
    04:00 +25°C° 4.2 mm 4 mps 755 mmHg 97%
    05:00 +25°C° 2.8 mm 4 mps 755 mmHg 96%
    06:00 +25°C° 2.8 mm 3 mps 755 mmHg 96%
    07:00 +25°C° 2.8 mm 3 mps 756 mmHg 95%
    08:00 +26°C° 1.8 mm 3 mps 756 mmHg 92%
    09:00 +27°C° 1.8 mm 4 mps 756 mmHg 88%
    10:00 +28°C° 1.8 mm 4 mps 756 mmHg 84%
    11:00 +29°C° 1.2 mm 4 mps 755 mmHg 84%
    12:00 +29°C° 1.2 mm 5 mps 754 mmHg 84%
    13:00 +29°C° 1.2 mm 5 mps 754 mmHg 83%
    14:00 +29°C° 0.6 mm 5 mps 754 mmHg 83%
    15:00 +29°C° 0.6 mm 5 mps 753 mmHg 82%
    16:00 +29°C° 0.6 mm 5 mps 753 mmHg 82%
    17:00 +28°C° 0.3 mm 5 mps 753 mmHg 85%
    18:00 +27°C° 0.3 mm 5 mps 754 mmHg 88%
    19:00 +26°C° 0.3 mm 5 mps 754 mmHg 91%
    20:00 +26°C° 0.9 mm 5 mps 754 mmHg 92%
    21:00 +26°C° 0.9 mm 5 mps 754 mmHg 92%
    22:00 +26°C° 0.9 mm 5 mps 755 mmHg 92%
    23:00 +26°C° 0.9 mm 5 mps 754 mmHg 93%

    Day after tomorrow, 25 February, Sunday

    Time Temperature Precipitation Wind Pressure Humidity
    00:00 +26°C° 0.9 mm 5 mps 754 mmHg 93%
    01:00 +25°C° 0.9 mm 4 mps 753 mmHg 94%
    02:00 +25°C° 0.5 mm 4 mps 753 mmHg 94%
    03:00 +25°C° 0.5 mm 4 mps 753 mmHg 94%
    04:00 +25°C° 0.5 mm 3 mps 752 mmHg 94%
    05:00 +25°C° 0.3 mm 3 mps 753 mmHg 94%
    06:00 +25°C° 0.3 mm 3 mps 753 mmHg 93%
    07:00 +25°C° 0.3 mm 3 mps 753 mmHg 93%
    08:00 +27°C° 0.2 mm 3 mps 753 mmHg 89%
    09:00 +28°C° 0.2 mm 3 mps 753 mmHg 85%
    10:00 +30°C° 0.2 mm 3 mps 753 mmHg 81%
    11:00 +30°C° 0.6 mm 3 mps 752 mmHg 78%
    12:00 +32°C° 0.6 mm 4 mps 752 mmHg 75%
    13:00 +33°C° 0.6 mm 4 mps 751 mmHg 72%
    14:00 +32°C° 0.5 mm 4 mps 751 mmHg 77%
    15:00 +30°C° 0.5 mm 4 mps 750 mmHg 81%
    16:00 +29°C° 0.5 mm 4 mps 750 mmHg 86%
    17:00 +29°C° 0.7 mm 4 mps 750 mmHg 88%
    18:00 +28°C° 0.7 mm 4 mps 751 mmHg 90%
    19:00 +27°C° 0.7 mm 4 mps 751 mmHg 91%
    20:00 +27°C° 1.4 mm 4 mps 752 mmHg 92%
    21:00 +27°C° 1.4 mm 4 mps 752 mmHg 92%
    22:00 +26°C° 1.4 mm 4 mps 753 mmHg 92%
    23:00 +26°C° 1.7 mm 4 mps 752 mmHg 93%

    26 February, Monday

    Time Temperature Precipitation Wind Pressure Humidity
    00:00 +26°C° 1.7 mm 4 mps 752 mmHg 94%
    01:00 +26°C° 1.7 mm 4 mps 752 mmHg 95%
    02:00 +25°C° 1.5 mm 4 mps 752 mmHg 95%
    03:00 +25°C° 1.5 mm 4 mps 752 mmHg 95%
    04:00 +25°C° 1.5 mm 3 mps 752 mmHg 96%
    05:00 +25°C° 0.4 mm 3 mps 752 mmHg 95%
    06:00 +26°C° 0.4 mm 3 mps 753 mmHg 94%
    07:00 +26°C° 0.4 mm 2 mps 753 mmHg 93%
    08:00 +28°C° 0.2 mm 2 mps 753 mmHg 86%
    09:00 +30°C° 0.2 mm 1 mps 753 mmHg 78%
    10:00 +32°C° 0.2 mm 1 mps 753 mmHg 71%
    11:00 +32°C° 0.9 mm 1 mps 753 mmHg 74%
    12:00 +32°C° 0.9 mm 2 mps 752 mmHg 77%
    13:00 +32°C° 0.9 mm 2 mps 752 mmHg 80%
    14:00 +30°C° 1.8 mm 3 mps 752 mmHg 83%
    15:00 +29°C° 1.8 mm 3 mps 752 mmHg 86%
    16:00 +27°C° 1.8 mm 4 mps 752 mmHg 89%
    17:00 +26°C° 0.9 mm 4 mps 753 mmHg 90%
    18:00 +26°C° 0.9 mm 5 mps 753 mmHg 91%
    19:00 +24°C° 0.9 mm 6 mps 754 mmHg 92%
    20:00 +24°C° 0.4 mm 6 mps 755 mmHg 92%
    21:00 +24°C° 0.4 mm 7 mps 755 mmHg 91%
    22:00 +24°C° 0.4 mm 7 mps 756 mmHg 91%
    23:00 +23°C° 0.2 mm 7 mps 756 mmHg 90%

    27 February, Tuesday

    Time Temperature Precipitation Wind Pressure Humidity
    00:00 +23°C° 0.2 mm 7 mps 755 mmHg 89%
    01:00 +23°C° 0.2 mm 7 mps 755 mmHg 88%
    02:00 +23°C° 0 mm 7 mps 755 mmHg 88%
    03:00 +23°C° 0 mm 6 mps 755 mmHg 88%
    04:00 +23°C° 0 mm 6 mps 755 mmHg 89%
    05:00 +23°C° 0 mm 6 mps 756 mmHg 88%
    06:00 +23°C° 0 mm 6 mps 756 mmHg 88%
    07:00 +23°C° 0 mm 6 mps 757 mmHg 88%
    08:00 +24°C° 0.1 mm 6 mps 757 mmHg 86%
    09:00 +24°C° 0.1 mm 6 mps 757 mmHg 84%
    10:00 +26°C° 0.1 mm 6 mps 758 mmHg 82%
    11:00 +26°C° 0 mm 6 mps 757 mmHg 79%
    12:00 +27°C° 0 mm 6 mps 757 mmHg 77%
    13:00 +28°C° 0 mm 6 mps 757 mmHg 75%
    14:00 +28°C° 0 mm 6 mps 756 mmHg 72%
    15:00 +28°C° 0 mm 6 mps 756 mmHg 70%
    16:00 +28°C° 0 mm 6 mps 756 mmHg 68%
    17:00 +27°C° 0 mm 6 mps 756 mmHg 72%
    18:00 +25°C° 0 mm 5 mps 757 mmHg 76%
    19:00 +23°C° 0 mm 5 mps 757 mmHg 80%
    20:00 +22°C° 0 mm 5 mps 757 mmHg 83%
    21:00 +22°C° 0 mm 5 mps 757 mmHg 86%
    22:00 +21°C° 0 mm 4 mps 758 mmHg 89%
    23:00 +21°C° 0 mm 4 mps 757 mmHg 90%

    28 February, Wednesday

    Time Temperature Precipitation Wind Pressure Humidity
    00:00 +21°C° 0 mm 4 mps 757 mmHg 91%
    01:00 +20°C° 0 mm 4 mps 757 mmHg 92%
    02:00 +20°C° 0 mm 4 mps 757 mmHg 92%
    03:00 +20°C° 0 mm 4 mps 756 mmHg 93%
    04:00 +20°C° 0 mm 4 mps 756 mmHg 93%
    05:00 +21°C° 0 mm 4 mps 757 mmHg 92%
    06:00 +21°C° 0 mm 4 mps 757 mmHg 90%
    07:00 +21°C° 0 mm 4 mps 757 mmHg 88%
    08:00 +23°C° 0 mm 4 mps 757 mmHg 79%
    09:00 +26°C° 0 mm 4 mps 757 mmHg 69%
    10:00 +28°C° 0 mm 4 mps 757 mmHg 60%
    11:00 +30°C° 0 mm 4 mps 756 mmHg 55%
    12:00 +32°C° 0 mm 4 mps 756 mmHg 49%
    13:00 +34°C° 0 mm 4 mps 755 mmHg 44%
    14:00 +33°C° 0 mm 4 mps 755 mmHg 46%
    15:00 +33°C° 0 mm 4 mps 755 mmHg 48%
    16:00 +33°C° 0 mm 4 mps 755 mmHg 51%
    17:00 +29°C° 0 mm 4 mps 755 mmHg 61%
    18:00 +27°C° 0 mm 4 mps 756 mmHg 72%
    19:00 +25°C° 0 mm 4 mps 756 mmHg 83%
    20:00 +23°C° 0 mm 4 mps 756 mmHg 86%
    21:00 +22°C° 0 mm 4 mps 757 mmHg 89%
    22:00 +22°C° 0 mm 3 mps 757 mmHg 92%
    23:00 +21°C° 0 mm 3 mps 757 mmHg 92%
    Show more